Inver Grove Heights, MN

1:45 PM CST on January 23, 2017 (GMT -0600)
South Saint Paul Municipal-Fleming

Weather History for KSGS - February, 2012

Change the Weather History Date:

Wednesday, February 29, 2012

  Actual Average (KSTP) Record (KSTP)
Temperature  
Mean Temperature 34 °F -  
Max Temperature 35 °F 29 °F 48 °F (2004)
Min Temperature 33 °F 16 °F 15 °F (2008)
Degree Days  
Heating Degree Days 31    
Moisture  
Dew Point 34 °F    
Average Humidity 99    
Maximum Humidity 99    
Minimum Humidity 98    
Precipitation  
Precipitation 0.62 in - - ()
Sea Level Pressure  
Sea Level Pressure 29.33 in    
Wind  
Wind Speed 9 mph (East)    
Max Wind Speed 13 mph    
Max Gust Speed 25 mph    
Visibility 5 miles    
Events Rain , Snow    
Averages and records for this station are not official NWS values.
T = Trace of Precipitation, MM = Missing Value Source: NWS Daily Summary

Daily Weather History Graph

Daily Weather History Graph

Search for Another Location

Airport or City:

Trip Planner

Search our weather history database for the weather conditions in past years. The results will help you decide how hot, cold, wet, or windy it might be!

Date:

Astronomy

Feb. 29, 2012 Rise Set
Actual Time 6:50 AM CST 5:59 PM CST
Civil Twilight 6:21 AM CST 6:28 PM CST
Nautical Twilight 5:47 AM CST 7:02 PM CST
Astronomical Twilight 5:13 AM CST 7:36 PM CST
Moon 10:21 AM CST (2/29) 1:06 AM CST (2/29)
Length of Visible Light 12h 07m
Length of Day
11h 08m
Waxing Crescent, 47% of the Moon is Illuminated
Feb 29
Waxing Crescent
Feb 29
First Quarter
Mar 8
Full
Mar 14
Last Quarter
Mar 22
New

Hourly Weather History & Observations

Time (CST) Temp. Windchill Dew Point Humidity Pressure Visibility Wind Dir Wind Speed Gust Speed Precip Events Conditions
12:14 AM 33.6 °F 25.6 °F 33.1 °F 98% 29.62 in 3.0 mi East 10.4 mph 24.2 mph 0.03 in Rain Light Rain
12:34 AM 33.3 °F 24.6 °F 32.9 °F 99% 29.60 in 5.0 mi East 11.5 mph 20.7 mph 0.03 in   Overcast
12:55 AM 33.3 °F 24.6 °F 32.9 °F 99% 29.58 in 7.0 mi East 11.5 mph 17.3 mph 0.03 in   Overcast
12:59 AM 33.3 °F 24.1 °F 32.9 °F 99% 29.56 in 7.0 mi East 12.7 mph 19.6 mph 0.03 in   Overcast
1:14 AM 33.3 °F 24.1 °F 32.9 °F 99% 29.55 in 7.0 mi East 12.7 mph 18.4 mph N/A   Overcast
1:34 AM 33.3 °F 24.1 °F 32.9 °F 99% 29.52 in 4.0 mi East 12.7 mph 19.6 mph 0.03 in Rain Light Rain
1:54 AM 33.3 °F 24.6 °F 32.9 °F 99% 29.50 in 7.0 mi East 11.5 mph 19.6 mph 0.03 in   Overcast
1:59 AM 33.3 °F 25.7 °F 32.9 °F 99% 29.49 in 5.0 mi East 9.2 mph 16.1 mph 0.03 in   Overcast
2:14 AM 33.3 °F 25.7 °F 32.9 °F 99% 29.47 in 5.0 mi East 9.2 mph 21.9 mph N/A Snow Light Snow
2:34 AM 33.4 °F 25.4 °F 33.1 °F 99% 29.45 in 10.0 mi East 10.4 mph 19.6 mph N/A   Overcast
2:54 AM 33.4 °F 24.8 °F 33.1 °F 99% 29.42 in 4.0 mi East 11.5 mph 20.7 mph 0.03 in Snow Light Snow
2:59 AM 33.4 °F 24.3 °F 33.1 °F 99% 29.42 in 3.0 mi East 12.7 mph 18.4 mph 0.05 in Snow Light Snow
3:15 AM 33.4 °F 24.8 °F 33.1 °F 99% 29.39 in 3.0 mi East 11.5 mph 18.4 mph 0.07 in Rain Rain
3:34 AM 33.6 °F 24.6 °F 33.3 °F 99% 29.36 in 3.0 mi East 12.7 mph 25.3 mph 0.14 in Rain Light Rain
3:54 AM 33.6 °F 25.0 °F 33.3 °F 99% 29.35 in 4.0 mi East 11.5 mph 19.6 mph 0.17 in Snow Light Snow
3:59 AM 33.8 °F 26.4 °F 33.3 °F 98% 29.34 in 5.0 mi East 9.2 mph 19.6 mph 0.18 in Snow Light Snow
4:15 AM 33.8 °F 26.4 °F 33.4 °F 99% 29.35 in 5.0 mi East 9.2 mph - 0.03 in Rain Light Rain
4:34 AM 33.8 °F 27.7 °F 33.4 °F 99% 29.33 in 3.0 mi East 6.9 mph 20.7 mph 0.06 in Snow Light Snow
4:54 AM 33.8 °F 27.0 °F 33.4 °F 99% 29.33 in 3.0 mi East 8.1 mph 16.1 mph 0.09 in Snow Light Snow
4:59 AM 33.8 °F 26.4 °F 33.3 °F 98% 29.32 in 2.5 mi East 9.2 mph - 0.10 in Snow Light Snow
5:14 AM 33.4 °F 26.6 °F 33.1 °F 99% 29.31 in 2.5 mi East 8.1 mph - 0.02 in Snow Light Snow
5:34 AM 33.4 °F 25.4 °F 33.1 °F 99% 29.30 in 2.0 mi East 10.4 mph - 0.05 in Snow Light Snow
5:54 AM 33.3 °F 26.4 °F 32.9 °F 99% 29.28 in 1.8 mi East 8.1 mph - 0.08 in Snow Light Snow
5:59 AM 33.3 °F 27.1 °F 32.9 °F 99% 29.27 in 2.0 mi East 6.9 mph - 0.10 in Snow Light Snow
6:14 AM 33.4 °F 25.9 °F 33.1 °F 99% 29.27 in 2.5 mi East 9.2 mph - 0.03 in Snow Light Snow
6:35 AM 33.4 °F 26.6 °F 33.1 °F 99% 29.25 in 3.0 mi East 8.1 mph - 0.08 in Snow Light Snow
6:54 AM 34.0 °F 27.2 °F 33.8 °F 99% 29.25 in 5.0 mi East 8.1 mph - 0.10 in Snow Light Snow
6:59 AM 34.0 °F 26.0 °F 33.8 °F 99% 29.24 in 5.0 mi East 10.4 mph 17.3 mph 0.10 in   Overcast
7:14 AM 34.0 °F 27.2 °F 33.8 °F 99% 29.24 in 7.0 mi ESE 8.1 mph - N/A   Overcast
7:34 AM 34.2 °F 27.5 °F 34.0 °F 99% 29.24 in 4.0 mi East 8.1 mph - N/A   Light Drizzle
7:54 AM 34.2 °F 26.2 °F 34.0 °F 99% 29.24 in 5.0 mi East 10.4 mph - N/A   Overcast
8:15 AM 34.2 °F 26.8 °F 34.0 °F 99% 29.23 in 4.0 mi East 9.2 mph 18.4 mph N/A   Overcast
8:34 AM 34.3 °F 25.9 °F 34.0 °F 99% 29.24 in 4.0 mi East 11.5 mph 23.0 mph N/A   Overcast
8:54 AM 34.0 °F 27.2 °F 33.8 °F 99% 29.24 in 4.0 mi East 8.1 mph 16.1 mph 0.01 in   Overcast
8:59 AM 34.0 °F 27.2 °F 33.8 °F 99% 29.24 in 4.0 mi East 8.1 mph - 0.01 in Snow Light Snow
9:15 AM 34.0 °F 29.8 °F 33.8 °F 99% 29.24 in 4.0 mi East 4.6 mph - N/A   Overcast
9:55 AM 34.2 °F 31.2 °F 34.0 °F 99% 29.24 in 5.0 mi East 3.5 mph - 0.01 in   Light Drizzle
9:59 AM 34.2 °F 31.2 °F 34.0 °F 99% 29.24 in 7.0 mi East 3.5 mph - 0.01 in   Light Drizzle
10:14 AM 34.2 °F - 34.0 °F 99% 29.25 in 4.0 mi Calm Calm - N/A   Overcast
10:34 AM 34.2 °F 30.0 °F 34.0 °F 99% 29.25 in 4.0 mi East 4.6 mph - 0.01 in   Overcast
10:55 AM 34.2 °F - 34.0 °F 99% 29.25 in 4.0 mi Calm Calm - 0.01 in   Overcast
10:59 AM 34.3 °F - 34.0 °F 99% 29.25 in 5.0 mi Calm Calm - 0.01 in   Overcast
11:14 AM 34.7 °F - 34.2 °F 98% 29.26 in 5.0 mi Calm Calm - N/A   Overcast
11:34 AM 34.7 °F - 34.3 °F 99% 29.27 in 3.0 mi Calm Calm - N/A   Overcast
11:54 AM 34.7 °F - 34.2 °F 98% 29.27 in 2.0 mi Calm Calm - N/A   Overcast
12:15 PM 34.7 °F - 34.3 °F 99% 29.28 in 4.0 mi Calm Calm - N/A   Overcast
12:34 PM 34.7 °F - 34.2 °F 98% 29.29 in 7.0 mi Calm Calm - N/A   Overcast
12:54 PM 34.9 °F 32.0 °F 34.7 °F 99% 29.29 in 7.0 mi NNE 3.5 mph - N/A   Overcast
1:14 PM 35.1 °F 32.2 °F 34.7 °F 99% 29.30 in 10.0 mi NE 3.5 mph - N/A   Overcast
1:34 PM 35.6 °F 30.7 °F 35.1 °F 98% 29.30 in 10.0 mi NE 5.8 mph - N/A   Overcast
1:54 PM 35.1 °F 32.2 °F 34.7 °F 99% 29.30 in 10.0 mi NE 3.5 mph - N/A   Overcast
2:14 PM 35.6 °F 29.2 °F 35.1 °F 98% 29.31 in 10.0 mi NNE 8.1 mph - N/A   Overcast
2:34 PM 35.2 °F 30.3 °F 34.9 °F 99% 29.33 in 10.0 mi North 5.8 mph - N/A   Overcast
2:54 PM 35.6 °F 29.2 °F 35.1 °F 98% 29.35 in 10.0 mi North 8.1 mph - N/A   Overcast
3:14 PM 35.6 °F 29.9 °F 35.1 °F 98% 29.36 in 10.0 mi North 6.9 mph - N/A   Overcast
3:34 PM 35.2 °F 29.5 °F 34.9 °F 99% 29.38 in 10.0 mi North 6.9 mph - N/A   Overcast
3:54 PM 35.1 °F 27.9 °F 34.7 °F 99% 29.39 in 10.0 mi North 9.2 mph - N/A   Overcast
4:14 PM 34.7 °F 28.1 °F 34.3 °F 99% 29.41 in 10.0 mi NNW 8.1 mph - N/A   Overcast
4:34 PM 34.7 °F 26.4 °F 34.2 °F 98% 29.43 in 10.0 mi NNW 11.5 mph - N/A   Overcast
4:54 PM 34.7 °F 28.1 °F 34.2 °F 98% 29.45 in 10.0 mi North 8.1 mph - N/A   Overcast
5:14 PM 34.7 °F 28.8 °F 34.2 °F 98% 29.46 in 10.0 mi NNW 6.9 mph - N/A   Overcast
5:34 PM 34.7 °F 26.9 °F 34.2 °F 98% 29.47 in 10.0 mi NNW 10.4 mph - N/A   Overcast
5:55 PM 34.7 °F 28.1 °F 34.2 °F 98% 29.49 in 10.0 mi North 8.1 mph - N/A   Overcast
6:14 PM 34.9 °F 29.0 °F 34.0 °F 97% 29.50 in 10.0 mi NNW 6.9 mph - N/A   Overcast
6:34 PM 35.1 °F 28.6 °F 32.9 °F 92% 29.51 in 10.0 mi North 8.1 mph - N/A   Overcast
6:55 PM 34.9 °F 27.1 °F 32.0 °F 89% 29.53 in 10.0 mi North 10.4 mph - N/A   Overcast
7:15 PM 34.7 °F 28.1 °F 32.0 °F 90% 29.55 in 10.0 mi NNW 8.1 mph - N/A   Overcast
7:34 PM 34.7 °F 26.9 °F 31.6 °F 89% 29.57 in 10.0 mi NW 10.4 mph - N/A   Overcast
7:54 PM 34.7 °F 27.5 °F 31.1 °F 87% 29.59 in 10.0 mi NW 9.2 mph - N/A   Overcast
8:14 PM 34.7 °F 27.5 °F 31.1 °F 87% 29.60 in 10.0 mi NNW 9.2 mph - N/A   Overcast
8:34 PM 34.7 °F 27.5 °F 30.7 °F 85% 29.61 in 10.0 mi NNW 9.2 mph - N/A   Overcast
8:54 PM 34.7 °F 28.1 °F 30.2 °F 84% 29.63 in 10.0 mi NNW 8.1 mph - N/A   Overcast
9:14 PM 34.7 °F 26.9 °F 30.2 °F 84% 29.64 in 10.0 mi North 10.4 mph - N/A   Overcast
9:34 PM 34.7 °F 28.1 °F 30.0 °F 83% 29.65 in 10.0 mi NNW 8.1 mph - N/A   Overcast
9:55 PM 34.7 °F 27.5 °F 29.7 °F 82% 29.66 in 10.0 mi NNW 9.2 mph - N/A   Overcast
10:15 PM 34.3 °F 28.4 °F 30.2 °F 85% 29.66 in 10.0 mi North 6.9 mph - N/A   Overcast
10:34 PM 33.8 °F 27.0 °F 30.2 °F 87% 29.67 in 10.0 mi NNW 8.1 mph - N/A   Overcast
10:54 PM 33.8 °F 26.4 °F 29.8 °F 85% 29.68 in 10.0 mi NNW 9.2 mph - N/A   Overcast
11:14 PM 33.8 °F 27.0 °F 29.8 °F 85% 29.69 in 10.0 mi NNW 8.1 mph - N/A   Overcast
11:34 PM 33.3 °F 27.1 °F 29.8 °F 87% 29.69 in 10.0 mi North 6.9 mph - N/A   Overcast